Weather History for Beaumont, TX

Change the Weather History Date:

Friday, January 18, 2013

  Actual Average Record
Temperature  
Mean Temperature 48 °F 52 °F  
Max Temperature 60 °F 62 °F 81 °F (1906)
Min Temperature 35 °F 43 °F 11 °F (1930)
Degree Days  
Heating Degree Days 17 13  
Month to date heating degree days 255 234  
Since 1 July heating degree days 701 784  
Cooling Degree Days 0 0  
Month to date cooling degree days 7 0  
Year to date cooling degree days 7 0  
Moisture  
Dew Point 36 °F    
Average Humidity 66    
Maximum Humidity 100    
Minimum Humidity 31    
Precipitation  
Precipitation 0.00 in 0.18 in 3.81 in (1992)
Month to date precipitation 8.10 3.17  
Year to date precipitation 8.10 3.17  
Snow  
Snow 0.00 in 0.00 in T in (1940)
Month to date snowfall 0.0 0.0  
Since 1 July snowfall 0.0 T  
Snow Depth 0.00 in    
Sea Level Pressure  
Sea Level Pressure 30.45 in    
Wind  
Wind Speed 4 mph (ENE)    
Max Wind Speed 14 mph    
Max Gust Speed 18 mph    
Visibility 8 miles    
Events      
T = Trace of Precipitation, MM = Missing Value Source: NWS Daily Summary

Daily Weather History Graph

Daily Weather History Graph

Search for Another Location

Airport:

Trip Planner

Search our weather history database for the weather conditions in past years. The results will help you decide how hot, cold, wet, or windy it might be!

Date:

Astronomy

Jan. 18, 2013 Rise Set
Actual Time 7:11 AM CST 5:41 PM CST
Civil Twilight 6:46 AM CST 6:07 PM CST
Nautical Twilight 6:17 AM CST 6:36 PM CST
Astronomical Twilight 5:48 AM CST 7:05 PM CST
Moon 11:27 AM CST (1/18) No Moon Set
Length of Visible Light 11h 20m
Length of Day
10h 29m
Waxing Crescent, 47% of the Moon is Illuminated
Jan 18
Waxing Crescent
Jan 18
First Quarter
Jan 26
Full
Feb 3
Last Quarter
Feb 10
New

Hourly Weather History & Observations

Time (CST) Temp. Windchill Dew Point Humidity Pressure Visibility Wind Dir Wind Speed Gust Speed Precip Events Conditions
12:53 AM 41.0 °F - 35.1 °F 79% 30.47 in 10.0 mi Calm Calm - N/A   Clear
1:53 AM 39.0 °F - 35.1 °F 86% 30.48 in 10.0 mi Calm Calm - N/A   Clear
2:53 AM 41.0 °F 39.0 °F 35.1 °F 79% 30.48 in 10.0 mi NE 3.5 mph - N/A   Clear
3:53 AM 39.9 °F 35.1 °F 34.0 °F 79% 30.48 in 10.0 mi NE 6.9 mph - N/A   Clear
4:53 AM 39.0 °F 35.7 °F 34.0 °F 82% 30.48 in 10.0 mi NE 4.6 mph - N/A   Clear
5:53 AM 37.9 °F 35.5 °F 34.0 °F 86% 30.49 in 10.0 mi NE 3.5 mph - N/A   Clear
6:53 AM 37.9 °F 35.5 °F 34.0 °F 86% 30.50 in 10.0 mi NE 3.5 mph - N/A   Clear
7:53 AM 37.0 °F - 35.1 °F 93% 30.53 in 10.0 mi Calm Calm - N/A   Clear
8:53 AM 46.9 °F - 39.0 °F 74% 30.53 in 10.0 mi ENE 8.1 mph - N/A   Clear
9:53 AM 50.0 °F - 39.0 °F 66% 30.55 in 10.0 mi East 8.1 mph - N/A   Clear
10:53 AM 52.0 °F - 39.9 °F 63% 30.54 in 10.0 mi East 8.1 mph - N/A   Clear
11:53 AM 54.0 °F - 37.9 °F 55% 30.50 in 10.0 mi East 5.8 mph - 0.01 in   Clear
12:53 PM 57.0 °F - 36.0 °F 45% 30.46 in 10.0 mi NE 5.8 mph - N/A   Clear
1:53 PM 59.0 °F - 33.1 °F 38% 30.43 in 10.0 mi NE 9.2 mph - N/A   Clear
2:53 PM 59.0 °F - 28.9 °F 32% 30.41 in 10.0 mi NE 3.5 mph - N/A   Clear
3:53 PM 59.0 °F - 28.0 °F 31% 30.40 in 10.0 mi East 4.6 mph - N/A   Clear
4:53 PM 55.9 °F - 26.1 °F 32% 30.40 in 10.0 mi SE 6.9 mph - N/A   Clear
5:53 PM 48.0 °F - 39.0 °F 71% 30.40 in 10.0 mi South 8.1 mph - N/A   Clear
6:53 PM 45.0 °F 42.6 °F 39.0 °F 80% 30.41 in 10.0 mi South 4.6 mph - N/A   Clear
7:53 PM 41.0 °F - 37.9 °F 89% 30.41 in 10.0 mi Calm Calm - N/A   Clear
8:53 PM 42.1 °F - 39.0 °F 89% 30.41 in 10.0 mi Calm Calm - N/A   Clear
9:53 PM 41.0 °F - 39.0 °F 93% 30.41 in 7.0 mi Calm Calm - N/A   Clear
10:53 PM 37.0 °F - 37.0 °F 100% 30.40 in 2.5 mi Calm Calm - N/A   Clear
10:56 PM 37.4 °F - 37.4 °F 100% 30.40 in 1.2 mi Calm Calm - N/A   Clear
11:05 PM 37.4 °F - 37.4 °F 100% 30.40 in 0.8 mi Calm Calm - N/A   Clear
11:12 PM 37.4 °F - 37.4 °F 100% 30.40 in 1.5 mi Calm Calm - N/A   Clear
11:22 PM 39.2 °F - 37.4 °F 93% 30.39 in 3.0 mi Calm Calm - N/A   Clear
11:53 PM 39.0 °F - 37.0 °F 93% 30.38 in 10.0 mi Calm Calm - N/A   Clear